Hlavní strana
METAR-TAF:

METAR-TAF

Letiště :

Statesville Regional Airport

Statesville, Severní Karolína, Spojené státy americké

zeměpisná šířka: 35-45-55N, zeměpisná délka: 080-57-24W, výška: 294 m

Aktuální stav počasí

Zpráva byla vytvořena před 22 minutami, v 17:35 UTC
Severoseverovýchodní vítr 6 kt
Teplota 9°C
Vlhkost vzduchu 43%
Tlak 1021 hPa
Viditelnost: 16.1 km
Jasno

METAR: KSVH 151735Z AUTO 03006KT 10SM CLR 09/M03 A3016 RMK AO2 T00881027

Čas: 12:57 (17:57 UTC)


TAF: chybějící

Stav a předpovědi počasí z více než 4 000 letišť (zprávy METAR a TAF).

Červené a žluté tečky na mapě představují dostupné meteorologické stanice.

Když kurzor umístíte na tečku, zobrazí se název stanice.

Pak kliknutím zobrazíte stav a předpověď počasí.

Chcete-li změnit mapu, kliknutím na zelené tlačítko se znaménkem +mapu přiblížíte, kliknutím na zelené tlačítko se znaménkem – mapu oddálíte a kliknutím na zelené šipky přejdete na sousední mapy.


METAR-TAF: